Flag for Russia Weather past 2 weeks in Kaliningrad, Russia

Now
43 °F

Sprinkles. Mostly cloudy.


Feels Like: 35 °F
Forecast: 39 / 45 °F
Wind: 17 mph from Southwest

Location: Kaliningrad/Khrabrovo Airport

Current Time: Mar 30, 2015 at 12:57:40 PM

Latest Report: Mar 30, 2015 at 12:00 PM


Visibility: 5 mi

Pressure: 28.88 "Hg

Humidity: 87%

Dew point: 39 °F

Location of KaliningradLocation

Historic Weather in Kaliningrad — Graph

°F

Kaliningrad temperature yesterday

Maximum temperature yesterday: 52 °F (at 3:00 PM)
Minimum temperature yesterday: 27 °F (at 12:00 AM)
Average temperature yesterday: 42 °F

Past Weeks' High & Low Weather Summary

 TemperatureHumidityPressure
High61 °F (Mar 26, 2:00 PM)100% (Mar 21, 7:00 AM)30.80 "Hg (Mar 21, 7:00 AM)
Low25 °F (Mar 19, 4:30 AM)21% (Mar 17, 3:00 PM)28.88 "Hg (Mar 30, 8:30 AM)
Average41 °F70%30.13 "Hg
* Reported Mar 15 11:00 AM — Mar 30 11:30 AM, Kaliningrad, Weather by CustomWeather, © 2015

Note: Actual official high and low records may vary slightly from our data, if they occured in-between our weather recording intervals... More about our weather records

Advertising

Kaliningrad weather history for previous 24 hours

 ConditionsComfort  
Time TempWeatherWind HumidityBarometerVisibility
11:30 AM
Mon, Mar 30
43 °FSprinkles. Mostly cloudy.24 mph87%28.88 "Hg5 mi
11:00 AM43 °FSprinkles. Partly sunny.20 mph87%28.88 "Hg5 mi
10:30 AM45 °FPartly sunny.22 mph81%28.88 "HgN/A
10:00 AM45 °FMostly cloudy.20 mph81%28.88 "HgN/A
9:30 AM48 °FSprinkles. Mostly cloudy.13 mph87%28.88 "Hg5 mi
9:00 AM46 °FLight rain. Mostly cloudy.15 mph93%28.88 "Hg5 mi
8:30 AM46 °FLight rain. Mostly cloudy.17 mph93%28.88 "Hg5 mi
8:00 AM46 °FLight rain. Mostly cloudy.15 mph93%28.91 "Hg4 mi
7:30 AM46 °FLight rain. Mostly cloudy.15 mph93%28.91 "Hg4 mi
7:00 AM46 °FLight rain. Fog.15 mph87%28.94 "Hg3 mi
6:30 AM45 °FLight rain. Fog.15 mph93%28.94 "Hg3 mi
6:00 AM45 °FLight rain. Fog.15 mph93%28.97 "Hg2 mi
5:30 AM45 °FLight rain. Fog.15 mph93%29.00 "Hg3 mi
5:00 AM45 °FLight rain. Fog.13 mph93%29.03 "Hg3 mi
4:30 AM45 °FLight rain. Fog.13 mph93%29.06 "Hg2 mi
4:00 AM45 °FLight rain. Fog.15 mph93%29.06 "Hg2 mi
3:00 AM45 °FLight rain. Fog.13 mph93%29.12 "Hg2 mi
2:00 AM45 °FSprinkles. Fog.13 mph93%29.18 "Hg2 mi
1:00 AM46 °FSprinkles. Fog.10 mph87%29.21 "Hg3 mi
12:00 AM46 °FSprinkles. Fog.10 mph87%29.24 "Hg3 mi
11:00 PM
Sun, Mar 29
46 °FLight rain. Overcast.10 mph82%29.30 "Hg4 mi
10:00 PM46 °FOvercast.10 mph82%29.33 "Hg5 mi
9:30 PM46 °FOvercast.13 mph82%29.36 "Hg5 mi
9:00 PM45 °FLight rain. Overcast.6 mph87%29.36 "Hg5 mi
8:30 PM45 °FLight rain. Mostly cloudy.8 mph87%29.39 "Hg4 mi
8:00 PM46 °FLight rain. Mostly cloudy.10 mph71%29.39 "Hg4 mi
7:30 PM46 °FMostly cloudy.10 mph71%29.39 "HgN/A
7:00 PM46 °FMostly cloudy.10 mph71%29.39 "HgN/A
6:30 PM46 °FLight rain. Mostly cloudy.13 mph71%29.42 "Hg4 mi
6:00 PM48 °FMostly cloudy.13 mph66%29.42 "HgN/A
5:30 PM48 °FMostly cloudy.15 mph62%29.45 "HgN/A
5:00 PM48 °FMostly cloudy.15 mph62%29.45 "HgN/A
4:30 PM46 °FLight rain. Mostly cloudy.15 mph66%29.45 "Hg4 mi
4:00 PM48 °FLight rain. Mostly cloudy.15 mph62%29.47 "Hg4 mi
3:30 PM50 °FMostly cloudy.17 mph54%29.47 "HgN/A
3:00 PM52 °FMostly cloudy.15 mph50%29.50 "HgN/A
2:30 PM50 °FOvercast.20 mph50%29.53 "HgN/A
2:00 PM50 °FPassing clouds.17 mph54%29.53 "HgN/A
1:30 PM50 °FOvercast.17 mph50%29.56 "HgN/A
1:00 PM50 °FOvercast.17 mph54%29.56 "HgN/A
12:30 PM48 °FOvercast.15 mph58%29.59 "HgN/A
12:00 PM48 °FMore clouds than sun.13 mph58%29.62 "HgN/A
Weather by CustomWeather, © 2015

See weather overviewHow to use our weather pages